GEFSGL_500_meanwind_174.txt.gz
Wind_Speed
13 12 12 11 11 11 11 10 9 8 7 7 7 8 8 9 9 10 11 12 13 14 15 16 17 17 17 17 18 19 19 20 21 22 22 23 23 24 25 25 26 27 28
13 13 13 12 11 11 11 11 10 9 9 9 9 9 10 11 11 11 12 12 14 14 15 16 17 17 18 19 19 20 21 22 22 23 24 25 25 26 26 27 27 28 29
13 14 13 13 12 12 12 12 11 11 11 11 11 10 11 12 13 12 13 14 15 15 16 17 18 19 19 20 20 21 23 24 24 24 25 25 26 27 27 28 29 29 30
13 14 15 14 14 13 13 13 12 12 11 12 11 12 12 13 13 14 15 15 15 16 16 17 18 19 21 21 22 23 24 25 25 26 26 27 27 28 29 30 31 31 32
14 14 15 15 15 15 14 13 13 13 13 13 13 13 14 14 15 16 16 16 17 17 17 18 19 20 22 23 24 24 25 25 25 26 27 28 29 29 30 31 31 32 32
15 15 16 16 16 16 15 14 14 14 14 14 14 15 15 15 16 17 18 18 19 18 18 19 20 21 22 23 24 24 25 26 27 28 29 29 29 31 31 31 32 32 33
16 16 17 17 17 17 16 16 15 15 15 16 16 16 17 17 17 18 18 19 19 20 20 21 22 23 24 25 25 25 25 27 28 28 29 29 30 30 31 32 32 33 33
17 18 18 18 18 18 18 17 17 16 16 17 17 17 17 17 17 17 18 18 19 20 21 22 23 24 24 25 25 26 26 27 27 27 28 29 29 30 31 32 34 34 35
19 19 19 19 19 19 19 19 18 18 18 18 18 18 18 18 19 19 20 20 21 22 23 24 24 25 25 25 26 26 26 27 27 28 29 30 30 31 32 33 33 34 35
20 20 20 20 20 21 20 20 20 20 19 19 19 19 19 19 20 21 21 22 23 23 24 25 25 25 25 26 26 26 27 27 28 29 29 29 30 31 32 33 34 35 35
21 21 21 21 23 22 22 22 22 21 21 21 21 21 21 21 21 22 22 23 23 24 25 25 25 26 26 26 27 27 27 28 29 29 30 30 30 31 31 32 33 34 34
23 23 22 23 23 23 23 23 23 22 22 22 22 22 22 22 22 23 24 24 24 24 25 25 26 26 26 27 27 28 29 29 30 30 31 31 32 32 32 33 33 34 34
25 25 24 24 24 24 24 24 24 23 22 23 23 23 23 24 24 24 25 25 25 25 25 26 26 26 27 27 28 29 29 30 31 31 32 32 33 32 32 32 32 33 33
27 27 27 26 26 26 26 25 24 24 23 24 24 24 25 25 26 26 26 26 26 26 26 26 26 27 27 27 28 29 30 31 31 32 32 32 32 32 31 31 32 32 33
28 28 28 28 28 27 26 25 25 24 24 25 25 25 25 26 27 27 26 26 26 27 27 27 27 27 27 28 28 29 30 31 31 31 32 32 32 31 31 31 31 32 32
29 29 29 28 28 27 26 26 25 25 25 25 25 26 26 26 26 26 26 26 26 26 27 27 27 28 28 29 29 30 30 30 31 31 31 31 31 30 30 30 30 29 29
28 29 29 28 28 27 26 26 26 25 26 26 26 27 27 27 27 26 26 26 26 26 27 27 28 28 29 29 30 30 30 31 31 31 30 30 29 29 29 29 29 28 28
28 28 28 28 28 27 27 27 27 27 27 27 28 28 28 27 27 26 26 26 27 27 27 27 28 28 29 29 30 30 31 31 31 30 30 29 28 28 28 28 28 28 29
28 28 27 28 28 28 27 27 27 28 28 28 28 28 27 27 27 26 26 27 27 27 27 27 28 28 29 29 30 30 30 30 30 29 29 28 28 28 28 28 29 29 29
28 27 27 28 28 28 27 28 28 28 29 29 28 28 27 27 27 26 27 27 27 27 27 28 28 28 29 29 29 29 29 29 29 28 28 28 28 28 28 29 29 29 28
28 27 27 28 28 27 27 28 28 28 28 28 28 27 27 27 26 26 27 28 28 28 28 28 28 28 29 28 29 29 28 28 28 27 27 28 28 28 29 29 28 28 27
28 27 27 27 27 27 27 27 27 27 27 27 27 26 26 26 26 27 27 28 28 27 27 28 27 28 28 28 28 28 28 28 27 28 28 28 28 28 28 28 27 26 26
27 26 26 26 25 26 26 27 26 26 26 26 25 25 26 26 26 26 27 27 26 26 27 27 27 27 27 27 27 27 27 27 28 28 28 28 28 28 27 26 25 25 25
26 26 26 26 26 26 26 26 26 25 25 25 25 26 26 26 26 26 26 26 26 26 27 27 27 27 27 27 27 27 27 27 27 27 28 28 27 27 26 26 26 25 25
26 25 25 24 25 25 25 25 25 25 25 25 26 26 26 26 25 25 25 26 26 27 27 27 27 26 26 26 27 27 27 27 28 28 28 28 27 27 26 26 26 26 26
25 24 23 24 24 24 24 24 25 25 25 25 25 25 25 25 26 26 26 27 27 27 27 26 26 26 26 26 27 28 28 28 28 29 28 28 27 27 27 27 27 27 27

GEFSGL_500_meanwind_180.txt.gz
Wind_Speed
12 12 12 11 11 11 11 11 11 10 10 9 9 9 10 11 11 12 13 13 14 15 15 16 18 18 19 20 20 20 21 21 21 22 24 25 25 25 26 26 27 28 28
13 13 12 12 12 12 12 12 12 12 11 11 10 10 11 12 13 13 14 15 15 16 17 17 18 19 20 21 22 22 23 23 23 24 26 27 27 28 28 29 30 30 30
13 13 13 13 13 13 13 13 13 13 12 12 12 12 12 13 14 14 15 15 16 17 17 19 20 20 21 23 23 24 24 25 26 27 27 28 28 29 30 31 31 32 32
14 15 15 14 14 14 14 14 14 13 13 13 13 13 14 14 15 16 16 17 17 18 19 20 20 21 22 23 24 25 26 27 28 28 28 29 29 30 31 31 32 33 33
15 15 16 15 14 15 15 15 15 14 14 14 14 15 15 15 15 15 16 17 18 18 19 20 21 22 23 23 24 26 27 28 28 29 28 28 29 29 30 30 31 31 32
16 16 16 16 15 15 16 15 15 16 15 15 15 15 15 15 15 16 17 18 19 20 21 21 22 23 23 24 24 24 25 25 26 26 26 27 28 29 29 30 31 32 32
18 18 18 17 16 16 16 16 16 16 16 16 16 16 16 16 16 17 18 19 20 21 21 22 23 23 23 24 24 24 25 25 25 25 27 28 29 29 30 31 32 33 34
19 18 18 18 18 17 17 17 17 17 17 17 17 17 17 17 18 18 18 20 21 22 23 23 24 24 24 25 24 25 26 26 26 27 28 29 30 31 31 32 33 33 34
20 19 19 19 19 19 19 19 19 18 18 18 18 18 18 19 19 19 20 20 21 22 23 24 24 25 25 26 26 26 27 27 28 28 29 30 30 31 31 32 33 34 35
21 20 20 21 21 20 20 20 19 19 20 20 20 19 20 20 20 20 21 22 23 24 25 25 26 26 26 26 26 27 27 28 28 29 30 30 30 31 32 33 34 34 35
22 20 21 22 22 21 22 22 22 22 22 22 21 21 21 21 22 22 23 23 24 25 26 26 26 26 26 26 26 27 28 28 28 29 30 30 31 32 33 34 34 35 35
24 23 23 23 23 23 23 23 24 24 24 23 22 22 21 21 22 23 24 24 26 26 26 27 27 26 27 27 27 28 29 29 29 30 30 31 32 32 33 33 34 34 34
24 24 24 24 24 25 24 24 24 25 25 24 23 23 23 23 24 25 25 26 27 27 27 27 27 28 28 28 28 28 28 29 30 31 30 31 31 32 33 33 33 32 33
25 26 26 26 26 26 25 25 25 25 25 24 24 24 24 25 25 26 26 27 27 28 28 28 28 28 28 28 28 28 29 29 30 30 30 31 31 31 31 31 31 31 30
27 27 27 27 28 26 25 26 26 26 26 26 25 25 25 26 26 26 27 27 28 28 28 28 28 28 28 28 28 29 29 30 30 30 31 31 31 31 31 31 31 30 29
28 28 28 28 28 27 26 26 27 27 27 27 26 26 26 27 26 27 27 27 28 28 28 28 28 28 28 28 29 29 30 30 30 31 31 31 31 31 31 31 30 29 29
28 28 27 28 27 27 27 27 27 27 26 26 27 27 27 27 27 27 28 28 28 28 28 28 28 28 28 28 29 29 29 29 30 30 31 31 30 30 30 30 30 29 29
29 28 28 28 28 28 28 27 27 27 26 26 27 26 26 27 27 27 28 28 28 28 28 28 27 27 28 28 29 29 29 29 30 30 30 30 30 30 30 29 29 28 29
29 29 28 28 28 28 28 28 27 27 27 27 27 26 26 27 27 28 28 28 28 28 28 27 27 27 28 28 29 29 29 29 30 30 30 30 29 29 29 29 29 29 29
30 29 29 29 28 28 28 28 28 28 28 27 27 27 27 27 28 28 28 28 29 28 27 27 27 28 28 28 29 29 29 29 29 29 29 29 29 29 29 29 29 29 29
30 29 29 29 29 29 28 28 28 29 28 27 27 28 28 28 28 28 28 29 28 27 27 27 28 28 29 29 29 29 29 29 29 29 29 29 29 29 29 29 29 28 28
30 30 29 29 29 29 29 29 28 28 27 27 27 27 28 28 28 28 28 27 27 27 28 28 28 28 28 29 29 29 29 29 29 30 29 29 29 29 29 29 29 29 28
31 30 30 29 29 29 29 29 29 28 28 27 26 27 27 28 27 27 27 27 27 27 28 28 28 29 29 29 29 29 29 29 29 29 29 29 29 29 29 29 29 29 29
31 30 30 29 29 29 29 29 27 27 27 26 26 27 27 27 27 26 26 27 27 27 28 28 28 29 29 30 30 29 29 29 29 29 29 29 29 30 30 30 29 29 29
30 30 30 29 28 28 28 27 27 27 27 27 27 27 27 27 27 26 26 26 26 27 28 28 28 29 29 29 29 29 29 29 29 30 30 30 30 31 31 30 30 30 30
29 29 28 28 28 27 27 27 27 27 27 27 27 27 27 27 27 26 26 26 27 27 28 27 28 28 29 29 29 29 29 30 31 31 31 31 31 31 31 31 31 31 30

GEFSGL_500_meanwind_186.txt.gz
Wind_Speed
11 12 11 11 10 11 11 11 11 11 11 10 10 10 10 10 11 12 13 13 14 14 15 16 16 18 18 19 20 20 21 22 22 22 23 24 25 25 25 26 27 27 27
12 13 13 12 11 11 12 11 12 12 11 11 11 11 11 11 12 13 13 13 14 15 15 16 17 18 19 20 21 21 22 22 22 23 24 25 26 27 27 28 28 28 29
14 14 14 14 13 12 13 13 13 12 12 12 12 12 12 12 12 13 14 14 14 15 16 16 17 18 19 20 21 22 22 23 23 25 26 26 27 28 28 28 28 28 30
14 15 15 15 14 14 14 14 13 13 13 13 13 13 13 13 13 14 15 15 15 16 16 17 17 18 19 20 21 22 23 24 24 25 26 26 27 27 27 27 27 28 29
16 16 16 17 17 16 16 16 15 15 14 14 13 13 13 14 14 14 15 15 16 17 18 18 19 20 21 22 23 23 24 24 24 25 25 26 26 26 26 27 28 29 30
18 18 18 18 18 18 17 17 15 16 16 15 15 15 15 14 14 15 16 16 16 17 18 19 19 20 22 23 23 24 24 24 24 25 25 25 26 26 27 28 29 30 30
20 20 19 19 19 18 17 18 18 18 17 17 17 16 16 16 16 17 17 17 18 18 19 20 21 21 22 23 23 24 24 24 25 26 26 27 28 28 29 29 30 31 31
21 21 20 20 19 18 18 18 19 19 18 17 17 17 17 17 18 18 18 18 19 20 20 21 21 22 23 23 23 24 24 25 26 27 28 28 28 29 29 29 30 31 31
21 21 21 21 20 19 19 19 20 20 19 19 18 18 18 18 19 19 19 20 20 21 21 22 22 23 23 23 24 25 25 25 26 27 28 28 28 28 28 28 29 30 31
23 22 22 21 20 20 20 20 21 22 21 20 20 19 20 20 20 20 21 22 22 23 23 23 24 24 24 24 24 25 25 26 28 28 28 27 27 28 28 29 30 30 30
23 23 23 22 21 21 21 22 22 22 21 21 21 20 21 21 21 22 22 23 23 24 24 25 25 25 25 25 26 26 27 27 28 28 28 28 28 28 29 29 30 30 30
24 24 24 24 23 23 23 23 23 23 22 22 22 22 22 22 22 22 22 23 24 25 25 25 26 26 26 26 26 27 27 28 29 29 28 28 28 28 29 29 29 29 29
26 26 26 25 25 25 24 24 23 23 23 24 24 24 23 23 23 23 24 24 24 25 26 27 27 27 27 28 27 28 28 29 29 29 28 28 28 28 29 29 29 29 29
28 27 26 26 26 26 25 25 24 24 25 25 24 25 25 25 25 25 25 25 26 26 27 27 28 28 28 29 28 28 29 30 29 29 29 29 29 29 28 29 29 29 29
27 27 27 27 27 27 27 26 26 25 26 26 26 26 27 26 26 26 27 27 27 27 28 28 29 29 29 29 28 28 28 29 29 29 29 29 29 29 29 29 29 29 29
29 28 28 28 28 28 27 27 27 26 26 26 26 26 26 27 27 28 28 28 28 28 29 29 29 29 28 28 28 28 29 29 29 29 29 29 29 29 29 29 29 29 28
30 29 29 29 29 28 28 28 28 27 27 27 27 27 27 27 28 28 28 28 29 29 29 29 29 28 28 28 28 28 28 29 29 29 29 29 29 29 29 28 28 28 28
31 30 29 30 29 29 28 28 28 28 27 28 27 28 28 28 28 28 29 29 29 29 29 29 29 28 28 28 28 28 29 29 29 28 28 28 28 28 28 28 28 28 28
31 30 30 30 30 29 29 29 29 28 28 28 28 29 29 29 29 29 29 29 29 29 29 28 28 28 28 27 28 28 29 28 28 28 28 28 29 29 29 28 28 28 28
31 31 31 30 30 30 30 29 29 29 29 29 29 29 29 29 29 29 29 29 28 28 28 28 28 28 28 27 28 28 29 28 28 28 28 29 29 28 28 28 28 28 27
31 31 31 31 30 31 31 30 30 30 30 30 29 29 30 30 30 30 29 28 28 29 29 28 28 28 28 28 28 29 28 27 28 28 28 28 28 28 28 27 27 28 28
31 31 31 31 31 31 32 31 31 31 31 30 30 30 30 30 30 30 29 29 29 29 29 29 29 29 29 29 28 28 28 27 28 29 28 28 28 28 28 28 28 29 29
31 31 31 31 32 32 32 31 31 31 31 31 31 30 30 30 30 30 30 29 29 29 29 29 29 28 29 29 28 28 28 29 29 28 28 28 28 29 28 28 29 30 30
31 31 31 32 32 32 32 32 31 31 31 31 31 30 30 30 30 30 30 30 30 29 29 28 28 28 27 27 28 28 29 29 29 28 28 29 29 29 29 29 30 30 30
31 31 31 32 31 31 31 31 30 30 30 30 29 29 29 29 30 30 30 30 29 29 28 28 28 28 28 28 28 29 29 29 29 29 30 30 31 31 30 30 30 30 31
31 31 31 31 30 30 30 29 29 29 28 28 28 29 29 28 29 29 29 29 29 29 28 28 28 28 28 29 29 29 29 29 30 30 31 31 32 31 31 31 31 31 31

GEFSGL_500_meanwind_192.txt.gz
Wind_Speed
16 16 16 16 16 14 14 15 15 15 14 14 14 14 12 11 11 11 12 12 12 13 13 14 15 16 17 17 18 18 19 19 20 21 22 22 23 24 24 24 24 24 24
16 17 17 18 17 16 15 15 16 15 15 15 14 14 13 13 12 13 13 13 13 14 15 15 16 16 17 18 19 19 19 20 21 21 22 23 24 24 25 25 24 25 26
18 18 18 19 19 18 16 17 17 16 16 15 15 16 15 14 14 14 13 14 14 15 16 17 17 17 18 19 19 20 20 20 21 23 23 24 24 25 25 25 25 26 26
19 20 20 20 20 19 17 17 17 16 16 16 16 17 17 16 15 15 15 15 16 17 17 17 17 18 19 20 20 21 21 22 22 23 23 24 25 26 26 26 27 27 27
20 21 21 21 21 21 20 18 18 17 16 17 17 18 17 16 16 16 16 17 18 18 18 18 18 19 20 20 21 22 23 23 23 24 24 25 25 25 26 27 27 27 28
21 22 22 22 22 22 22 20 18 18 18 18 19 19 19 18 17 18 18 18 18 19 19 19 20 21 21 21 22 23 23 24 24 24 25 25 25 26 26 27 28 28 28
23 24 24 23 23 23 22 21 20 19 19 19 20 20 20 19 19 19 19 19 20 20 20 20 21 22 22 23 23 24 24 24 25 25 26 26 26 26 27 27 28 29 30
24 25 25 25 24 24 22 21 21 21 20 20 20 21 21 21 20 20 20 20 21 22 22 22 22 23 24 24 24 24 25 25 26 26 27 27 27 27 28 28 29 30 30
25 25 26 25 25 24 24 22 22 22 21 21 21 21 22 22 21 21 21 22 22 23 23 23 24 24 24 24 25 26 26 27 27 27 28 28 29 29 29 30 30 31 31
26 26 26 26 25 25 24 23 23 23 23 23 23 23 23 23 22 23 23 23 23 24 24 24 24 25 25 26 27 28 28 28 28 28 28 29 30 30 30 31 31 31 30
26 27 27 27 26 25 25 25 25 25 24 25 25 24 24 24 24 24 24 24 25 25 25 25 26 26 27 28 29 29 29 29 29 29 30 30 31 31 31 31 31 30 30
27 28 28 28 28 27 27 27 27 26 26 26 25 25 25 25 25 25 25 25 25 25 26 26 27 28 29 29 30 30 30 30 30 30 31 31 31 31 31 31 31 31 30
29 30 30 29 29 29 29 28 27 27 27 27 26 26 26 27 27 27 27 26 26 26 27 28 29 29 30 30 30 30 30 30 30 31 31 31 31 31 31 31 30 30 30
30 30 31 31 31 30 29 29 28 28 28 28 28 27 28 28 28 27 27 27 28 28 29 29 30 30 30 30 30 30 30 30 31 31 31 31 31 30 30 30 30 30 30
31 32 32 32 32 31 30 30 29 30 30 30 29 29 29 29 29 29 28 29 29 30 30 30 30 30 30 30 30 30 30 30 31 31 30 30 30 30 30 30 30 30 30
33 33 33 33 32 32 32 31 30 30 30 30 30 30 30 29 29 29 30 30 30 30 30 30 31 30 30 30 30 30 30 31 31 30 30 31 30 30 31 30 30 30 29
35 34 34 33 33 33 33 32 32 32 31 31 31 31 31 31 30 30 30 31 31 31 31 31 31 31 31 31 31 31 31 31 31 31 31 31 31 31 31 30 30 29 29
35 35 35 34 34 34 33 33 33 33 32 31 32 32 32 31 31 31 31 32 32 32 32 32 32 32 31 31 31 31 31 31 31 31 31 31 31 31 30 30 29 29 29
35 35 35 34 34 34 33 33 33 33 32 33 33 32 32 32 31 31 32 32 32 32 32 32 32 33 32 32 32 31 31 31 31 31 31 31 31 30 30 30 29 29 29
35 35 35 35 34 34 34 34 34 34 34 33 32 33 33 33 32 32 32 33 33 33 33 33 33 33 33 33 32 31 31 30 30 31 31 31 30 31 31 30 30 30 29
36 35 35 35 34 34 33 33 34 34 34 34 34 34 34 33 33 33 33 33 33 33 33 34 34 33 33 32 31 31 31 31 31 31 31 31 31 30 30 30 30 29 30
36 36 36 35 34 33 32 32 33 34 34 34 34 34 34 33 34 34 34 34 34 33 33 33 33 33 32 31 31 31 31 31 31 31 31 31 31 31 30 30 30 30 31
36 35 35 34 33 33 33 33 33 34 34 34 34 33 33 33 33 33 33 34 33 32 32 32 33 31 30 30 30 31 31 31 31 31 31 31 31 31 31 31 31 31 31
34 34 33 33 33 33 33 33 33 34 34 34 33 33 33 32 33 33 33 33 32 32 31 31 31 31 31 31 31 31 31 32 32 32 32 32 31 31 31 31 31 31 32
33 33 33 33 33 33 33 33 33 33 33 33 33 32 32 33 33 33 33 33 32 31 31 31 31 31 31 31 32 32 32 32 32 32 32 32 32 32 32 32 32 32 32
33 33 33 33 33 33 33 33 33 33 33 32 32 32 32 32 33 33 33 32 32 31 31 31 32 32 32 32 32 32 32 32 32 32 32 33 33 33 33 33 33 33 33

GEFSGL_500_meanwind_198.txt.gz
Wind_Speed
14 14 15 16 16 15 15 14 13 12 12 11 10 10 9 9 10 10 10 10 11 11 12 12 13 13 14 14 15 16 16 17 17 18 19 19 20 21 21 21 22 23 23
14 15 16 17 17 17 16 15 14 13 12 11 11 10 10 11 11 11 11 11 12 12 13 13 14 14 14 15 16 16 17 18 18 18 18 19 20 20 21 21 22 23 24
14 15 16 17 18 18 17 16 14 13 13 12 12 11 12 12 13 12 12 12 12 12 13 14 14 15 16 16 17 17 18 18 19 19 20 20 20 21 22 22 23 23 23
14 15 16 17 18 19 19 18 16 14 14 14 14 13 13 13 14 14 14 13 13 13 14 14 15 15 16 17 17 18 18 19 20 20 21 21 21 22 23 23 23 24 25
15 17 18 18 19 20 20 20 18 15 15 15 14 13 13 14 15 15 14 14 14 15 15 15 16 16 17 17 18 18 19 20 21 21 21 22 22 23 23 24 24 25 25
17 18 18 19 20 21 21 20 19 17 16 15 15 15 15 15 16 16 15 15 16 16 17 17 18 18 18 18 18 19 20 21 22 22 23 23 24 24 24 25 25 26 26
17 18 19 19 20 21 21 20 19 18 17 16 16 16 17 17 17 17 16 16 17 17 18 19 19 19 19 19 20 21 22 22 23 23 24 25 25 25 26 26 27 27 27
18 19 20 20 20 21 21 21 20 20 19 19 18 18 18 18 17 17 17 18 18 18 19 19 20 20 21 21 22 23 23 23 24 25 26 26 26 26 27 27 28 28 29
19 20 20 21 21 21 22 21 21 21 21 20 20 20 19 19 19 18 19 19 20 20 20 21 21 21 22 22 23 24 24 25 25 26 26 27 27 27 27 28 28 29 29
21 21 22 22 22 23 23 23 23 22 22 22 21 21 20 20 20 20 20 20 21 21 22 22 22 22 23 23 24 24 25 26 27 27 27 27 28 28 28 29 29 29 30
22 22 23 23 24 24 25 26 25 24 23 23 22 22 21 22 21 21 21 21 22 23 24 24 24 24 24 24 25 25 26 27 28 28 28 28 28 28 29 29 30 30 30
24 24 25 25 25 26 26 27 27 27 25 25 24 23 23 23 23 23 23 23 24 24 24 25 25 25 26 26 26 26 26 27 28 28 28 28 28 28 29 29 29 29 29
26 26 27 27 27 27 27 27 28 27 27 27 26 24 24 24 24 24 24 25 26 26 26 26 26 27 27 27 27 27 28 28 28 28 28 28 28 28 29 29 29 29 29
28 28 28 28 28 28 28 28 28 28 27 26 27 27 27 26 26 26 26 27 27 27 27 26 27 27 27 28 28 28 29 29 28 28 29 29 29 29 29 29 30 30 30
29 30 30 30 30 29 30 30 29 29 29 28 28 28 27 27 27 28 28 27 27 27 27 27 27 28 28 28 29 29 29 29 29 29 29 29 29 29 30 30 30 30 30
31 32 32 32 31 31 31 31 30 29 29 29 28 28 28 28 28 28 28 28 28 28 28 28 28 28 29 29 29 30 30 30 30 30 30 30 29 29 29 30 30 30 30
33 33 33 33 33 33 33 32 31 30 30 30 30 30 30 30 29 30 29 29 29 29 29 29 29 29 30 30 30 31 31 30 30 30 30 29 29 29 29 29 29 29 29
34 34 34 34 33 34 34 33 32 32 31 31 31 31 31 31 31 31 30 30 30 30 30 30 30 30 30 31 31 31 31 30 30 30 30 29 29 28 28 28 29 29 28
34 34 34 34 34 33 33 32 33 33 32 32 31 32 32 32 32 32 31 31 30 30 30 30 30 30 30 31 31 30 30 31 31 30 30 29 28 28 28 28 29 29 29
34 34 34 34 34 34 34 34 34 33 33 32 32 32 32 31 32 32 32 31 30 30 31 31 31 31 31 31 31 30 30 30 30 30 29 29 28 29 29 29 29 29 29
35 35 35 35 34 34 34 34 34 33 33 33 32 32 32 33 33 32 31 31 31 31 30 30 31 31 31 31 30 30 30 30 29 30 30 29 29 29 29 30 30 30 30
36 36 35 35 35 35 35 35 34 34 33 33 33 32 32 32 32 32 31 31 31 30 30 30 31 31 31 31 30 30 30 30 30 30 30 30 29 30 30 31 31 30 30
35 35 35 35 35 35 35 34 34 33 33 33 33 32 32 32 32 31 31 31 31 30 30 31 31 31 31 31 31 31 31 31 30 31 30 30 30 31 31 32 32 32 31
34 34 34 34 33 34 34 34 33 33 32 32 32 33 32 32 31 31 31 30 30 30 31 31 31 31 31 31 31 31 31 31 31 31 31 31 31 32 32 32 32 32 32
33 34 33 33 33 33 33 33 33 32 32 32 32 31 31 31 31 31 30 31 30 31 31 31 31 31 31 32 32 32 31 31 31 31 31 31 32 32 33 32 32 32 32
33 33 33 33 33 33 33 32 32 32 32 31 31 30 31 31 30 30 30 31 30 31 31 31 31 31 31 31 32 32 31 31 31 31 31 32 32 32 32 32 32 32 32

GEFSGL_500_meanwind_204.txt.gz
Wind_Speed
10 11 13 14 15 15 16 17 16 14 14 14 13 12 12 11 11 11 12 12 12 13 13 13 14 14 15 16 16 17 17 18 18 19 19 19 19 20 20 21 22 22 22
11 12 14 15 16 17 17 17 17 16 16 15 14 14 13 12 12 13 13 13 13 13 14 14 15 15 16 17 17 18 18 18 19 19 20 20 20 20 21 22 22 22 23
11 12 14 16 17 17 18 18 18 18 17 16 15 14 13 13 13 14 14 14 14 14 14 15 15 16 16 17 17 17 18 19 19 20 20 21 21 22 22 23 23 23 24
12 13 15 17 18 18 19 19 19 19 18 17 15 14 14 14 14 15 15 15 15 15 15 16 16 16 16 17 17 18 19 19 20 20 21 21 22 22 23 24 24 25 26
13 14 16 17 18 19 19 20 19 19 19 17 16 15 15 15 15 15 16 16 16 16 16 16 16 17 17 18 18 19 20 20 21 21 22 23 23 23 24 25 25 26 26
15 16 17 18 19 19 19 20 20 19 19 18 16 16 16 16 16 16 16 16 17 17 17 17 17 18 18 19 19 20 21 22 22 22 24 25 25 25 25 25 26 27 27
16 18 19 19 20 20 20 20 20 20 19 19 18 18 18 18 18 18 18 18 18 18 18 18 18 19 20 20 21 22 23 23 23 24 24 25 26 26 26 27 27 27 28
18 19 20 20 20 21 21 21 21 21 21 20 20 20 20 20 20 20 20 19 19 19 19 19 20 20 21 22 22 23 24 24 25 25 26 26 27 27 27 28 28 29 30
20 20 21 21 21 21 22 22 23 23 23 22 22 22 22 22 22 22 21 21 20 20 20 20 21 21 22 23 23 24 25 25 26 26 27 27 28 28 28 29 29 29 30
21 22 22 22 22 23 23 23 24 24 24 24 24 24 23 23 23 22 22 22 21 21 21 22 22 23 23 24 24 24 25 26 26 27 27 27 28 28 29 29 30 30 30
22 24 23 23 23 24 24 24 25 25 25 25 25 25 25 24 24 24 24 23 23 23 23 23 24 24 25 25 25 26 26 26 27 27 28 28 28 28 29 29 30 30 30
24 25 25 25 25 25 25 25 26 26 27 27 27 26 26 25 24 24 25 24 24 24 24 25 25 26 26 26 27 27 27 27 28 28 28 28 29 29 29 29 30 30 30
26 27 27 27 27 27 27 27 27 28 29 29 29 28 27 27 26 26 26 25 25 25 26 26 26 27 27 27 27 28 28 29 29 28 29 29 29 30 30 30 30 30 30
28 28 28 28 28 29 29 29 30 30 30 30 29 28 28 27 27 27 26 27 27 26 27 27 28 28 28 29 28 28 29 29 29 29 30 30 30 30 30 30 30 30 31
29 29 29 29 29 29 30 31 31 31 31 31 30 30 29 29 29 29 28 28 27 27 28 29 29 29 29 29 29 29 29 30 30 30 30 30 30 30 30 30 30 31 31
31 31 31 31 31 31 31 32 32 32 33 32 32 31 31 31 30 30 30 30 29 29 30 30 30 30 30 30 29 30 29 29 30 30 30 30 30 30 30 30 31 30 30
32 33 33 32 32 33 32 32 32 32 33 33 33 32 32 32 32 31 31 31 30 31 31 31 31 31 31 30 30 30 30 30 30 30 31 31 31 30 30 30 30 30 30
32 33 33 33 33 34 34 34 33 33 33 33 33 33 33 33 33 33 33 32 32 32 32 32 31 31 31 31 30 30 30 30 31 31 31 31 31 30 30 30 30 30 30
33 33 34 34 34 35 35 35 35 34 34 33 33 34 34 34 33 33 33 33 33 32 32 32 32 32 31 31 31 31 31 31 31 31 31 31 30 30 30 30 30 31 31
33 34 34 35 35 36 35 35 35 35 35 35 34 35 35 35 34 34 34 33 34 33 33 33 33 33 32 32 32 32 32 32 31 31 31 31 31 31 31 31 31 32 32
33 34 35 35 35 35 34 34 35 36 36 35 35 35 35 35 35 35 34 34 34 34 34 33 33 32 32 32 32 32 32 32 31 31 32 32 32 32 32 32 32 32 32
34 34 34 34 34 35 35 35 36 36 36 36 36 36 36 36 36 35 35 34 34 34 33 33 32 32 32 32 32 32 32 32 32 32 32 32 32 32 32 32 32 32 32
34 34 34 35 35 35 36 36 36 37 37 37 37 36 36 36 35 35 34 34 34 33 33 32 32 32 32 32 32 32 32 32 32 32 32 32 32 32 32 32 32 32 32
34 35 35 35 35 35 35 36 36 36 37 37 37 36 36 36 35 34 34 33 32 32 31 31 31 32 32 33 33 32 31 31 31 31 31 31 32 32 32 32 32 32 32
34 34 35 35 35 35 35 35 35 35 35 36 35 35 35 35 34 33 33 32 32 32 31 31 32 32 33 33 33 32 31 31 30 31 32 32 33 32 32 32 32 33 32
34 34 34 34 34 34 34 34 34 33 33 33 33 33 32 32 32 33 33 32 31 31 32 32 33 33 33 32 31 30 29 30 31 31 32 33 33 32 32 32 33 33 33

GEFSGL_500_meanwind_210.txt.gz
Wind_Speed
9 10 10 11 12 12 13 13 13 14 15 14 14 14 14 14 13 13 13 13 13 13 13 14 14 14 15 15 16 17 17 17 18 18 19 19 20 20 20 21 21 21 22
9 10 10 12 13 13 13 14 14 14 15 15 15 15 15 14 13 14 14 14 14 14 15 15 15 15 15 16 17 18 18 18 19 19 19 20 20 21 21 21 22 22 23
10 10 10 11 13 14 15 16 16 16 15 16 16 16 15 14 14 14 14 15 15 15 15 15 16 16 16 17 17 18 18 18 19 19 20 21 21 22 22 22 23 24 24
11 11 12 12 13 15 16 16 17 17 17 17 17 17 16 15 15 15 15 15 15 16 16 16 16 17 17 18 18 18 18 19 20 20 21 22 22 23 23 24 25 25 26
12 12 13 13 14 15 16 17 17 18 17 17 18 18 17 16 16 16 15 16 16 16 16 17 17 17 18 18 19 19 20 20 21 22 23 23 24 24 25 25 26 26 27
14 15 15 15 15 16 17 18 18 19 19 19 19 19 19 18 17 17 17 17 17 17 17 17 17 17 18 20 20 21 21 22 22 23 24 24 24 25 26 26 26 26 27
16 17 17 17 17 18 18 19 20 20 20 21 20 20 20 20 19 19 19 19 19 18 18 19 19 19 20 21 21 22 22 23 23 24 24 24 25 26 26 27 27 27 27
18 18 18 18 19 19 20 20 21 22 22 22 21 21 21 21 21 21 21 21 21 20 20 21 21 21 22 22 23 23 24 24 24 25 25 25 26 26 26 27 27 28 28
19 19 20 20 20 21 21 21 22 23 23 23 23 23 23 23 23 23 22 22 22 22 22 22 22 22 23 23 24 24 25 25 26 26 26 26 26 27 27 28 28 28 29
22 21 21 21 21 22 22 22 23 24 24 24 25 25 24 23 24 24 23 23 22 23 23 22 23 23 24 24 24 25 25 25 26 26 27 27 27 28 28 28 29 29 29
23 23 23 23 23 24 24 25 25 26 25 26 27 27 26 25 25 25 25 24 23 23 24 23 23 24 24 24 25 25 25 26 26 27 27 28 28 28 29 29 29 29 30
25 26 26 26 27 27 27 27 28 28 27 27 27 27 27 26 26 26 26 25 25 25 24 24 24 24 24 25 26 26 26 26 26 26 27 28 28 28 28 28 29 30 30
27 28 28 29 29 30 30 30 30 31 30 29 29 28 28 28 28 28 27 27 27 27 26 26 26 27 27 27 27 27 28 28 28 28 28 28 28 28 29 29 30 30 30
30 30 30 31 31 32 32 32 32 31 31 31 30 30 29 29 29 29 29 29 28 28 28 28 28 29 29 28 28 28 28 28 28 28 28 29 29 30 30 30 30 30 30
33 33 33 33 33 33 33 33 32 32 32 32 31 30 30 30 30 30 30 30 30 29 29 29 29 29 29 29 29 29 29 29 29 29 29 30 30 31 31 31 30 29 29
35 35 34 34 34 34 34 34 34 33 33 33 32 31 30 31 31 30 31 31 30 30 30 29 30 31 31 31 30 30 29 29 30 30 31 31 31 31 31 31 31 30 30
37 37 35 35 35 35 34 35 35 34 33 32 32 32 32 31 31 31 32 31 31 30 30 30 31 31 32 31 31 31 31 31 31 31 31 31 30 31 32 31 31 30 30
37 36 35 34 35 36 35 35 34 34 33 33 33 33 33 33 32 32 33 32 31 31 31 31 31 31 31 32 32 32 32 32 32 31 31 30 31 31 31 31 31 30 30
37 37 37 36 36 36 35 35 35 34 34 34 34 34 34 33 34 34 34 33 33 32 32 32 32 32 32 32 32 32 32 32 32 32 31 31 32 32 31 31 31 30 30
37 36 36 36 37 36 36 36 35 34 34 35 35 34 34 34 35 34 34 33 33 33 32 32 32 32 33 33 33 32 32 33 33 32 32 31 32 31 31 31 31 31 31
37 36 36 36 36 36 36 36 35 35 35 35 35 35 35 35 35 34 35 34 34 34 33 34 34 34 34 33 33 33 33 32 32 32 32 32 32 31 32 32 32 31 31
38 36 35 35 35 35 35 36 36 35 36 35 35 35 35 35 35 35 35 35 35 34 35 35 35 35 34 33 33 33 32 32 32 32 32 32 32 31 31 32 32 32 32
35 34 34 34 35 34 35 36 36 35 34 35 35 35 35 35 35 35 35 35 35 35 35 34 34 33 33 33 33 33 32 31 31 31 31 32 32 32 32 31 32 32 32
34 33 33 33 34 34 34 34 34 34 33 34 34 34 35 35 35 35 35 34 34 34 33 33 33 32 32 32 32 32 31 31 32 32 32 32 32 32 32 32 32 32 32
33 33 33 33 33 33 33 33 33 33 33 33 33 34 34 34 33 33 32 32 32 31 32 32 31 30 30 31 31 32 32 32 32 32 32 32 32 32 32 32 32 32 32
33 33 33 33 32 32 32 33 33 33 32 33 33 33 33 33 32 32 32 32 31 31 31 31 30 30 30 31 31 31 31 30 30 30 30 31 31 31 32 32 32 32 31

GEFSGL_500_meanwind_216.txt.gz
Wind_Speed
11 11 12 12 12 12 13 13 14 15 16 17 17 16 16 16 16 16 15 15 15 15 15 15 15 15 16 17 17 18 18 19 19 19 19 19 19 19 20 20 21 21 22
11 12 12 13 13 13 13 15 15 16 18 18 18 18 17 17 17 17 16 16 16 16 16 16 16 17 17 18 18 18 19 19 20 20 20 20 20 20 21 21 21 22 23
12 12 13 14 15 15 15 16 17 18 18 19 19 19 18 18 18 18 18 18 17 17 17 17 17 18 18 19 19 20 20 21 21 21 21 21 21 22 22 22 22 22 23
12 13 13 15 16 16 16 17 18 18 19 19 19 19 19 19 19 19 19 19 19 19 18 18 19 19 19 20 20 21 21 22 21 22 22 22 22 23 23 23 23 24 25
13 14 15 15 16 17 18 18 19 19 20 20 20 20 20 20 21 21 21 21 20 20 20 20 20 20 20 20 21 22 22 22 23 23 23 24 24 24 25 25 25 25 26
15 15 16 16 17 18 18 19 20 20 21 22 21 21 22 22 22 23 22 22 21 21 21 21 21 21 22 22 22 23 24 24 24 25 25 26 26 27 26 26 27 26 26
17 17 17 18 18 19 20 20 21 22 22 23 23 23 23 23 23 24 24 23 23 22 22 22 22 23 23 23 24 25 26 26 26 26 27 27 27 27 27 27 28 28 28
19 19 19 20 20 21 21 22 22 23 24 25 25 24 24 24 24 25 25 25 24 24 24 24 25 25 25 26 26 26 26 27 27 27 28 28 28 28 28 28 28 28 28
21 22 22 22 22 23 23 23 24 25 26 26 26 26 26 26 27 27 27 27 26 25 25 26 26 27 27 27 28 28 28 28 27 27 28 28 28 29 29 28 28 29 29
24 24 24 24 25 25 26 26 27 27 27 27 28 28 28 29 29 29 29 28 28 27 27 28 28 28 28 28 29 29 28 28 28 28 28 29 29 28 28 28 29 29 30
26 26 26 26 27 27 28 28 28 29 29 29 29 30 30 30 30 30 30 30 30 29 29 29 28 28 28 30 29 29 28 29 28 29 29 28 28 28 28 29 30 30 30
27 28 27 28 28 29 29 29 29 30 31 32 32 32 32 32 32 31 31 31 31 31 31 30 30 29 30 30 29 29 29 29 29 29 29 29 29 30 30 30 31 31 30
29 29 29 30 30 30 30 30 31 32 33 33 33 33 32 33 32 32 32 32 32 32 31 31 31 30 30 30 30 30 29 29 29 29 29 30 31 31 32 31 31 30 30
30 31 31 31 32 32 33 33 33 33 34 34 34 34 33 33 33 34 34 34 33 33 33 33 32 32 31 30 31 31 31 30 30 30 30 31 32 32 32 32 32 31 30
33 33 33 34 34 34 34 35 35 36 35 35 35 35 35 35 35 35 35 34 34 34 34 34 33 33 32 31 31 31 32 31 31 31 31 31 31 31 32 32 31 31 30
35 35 36 36 36 36 37 38 38 38 37 37 37 37 37 37 37 37 36 35 35 34 34 34 34 33 33 32 32 32 32 31 31 31 31 31 31 31 32 32 31 31 31
36 36 36 37 38 38 39 39 39 39 39 39 38 38 38 38 37 37 36 35 35 34 34 34 34 34 34 34 33 33 32 32 32 32 32 32 32 32 32 32 32 32 31
37 37 37 38 39 39 39 40 39 39 38 38 39 39 39 38 38 37 36 36 35 35 35 35 35 35 35 34 34 33 33 33 33 32 33 33 33 32 32 32 32 32 31
37 37 38 38 38 39 39 39 39 39 39 39 39 38 39 38 38 37 37 36 36 36 36 35 35 35 35 35 34 33 33 33 32 32 32 32 32 32 32 32 32 31 31
37 38 38 38 38 39 39 39 40 40 39 39 38 37 37 37 37 37 37 37 36 36 35 35 35 35 34 35 34 33 32 32 31 31 30 31 32 32 32 31 31 31 30
36 37 37 38 38 38 38 38 37 37 37 37 36 36 36 37 37 37 37 37 36 35 35 35 35 34 34 34 33 32 31 31 31 31 31 31 31 32 31 31 31 31 30
37 37 37 36 36 36 36 36 36 36 36 36 36 37 37 37 37 37 37 37 36 36 36 36 35 35 35 34 34 33 32 32 32 31 31 32 32 31 31 31 31 31 30
36 35 35 35 34 34 35 36 36 36 36 36 36 36 37 37 37 37 37 36 36 36 36 36 36 36 35 35 34 33 33 33 32 32 32 31 31 31 30 30 31 31 31
35 35 35 34 34 34 35 35 36 36 36 35 35 36 37 36 36 36 36 36 36 36 36 36 36 35 35 35 33 32 32 32 32 33 32 32 31 31 31 31 31 32 32
34 33 33 32 33 34 34 35 35 35 35 35 36 36 37 37 36 36 36 37 36 36 35 35 35 35 35 34 33 32 32 32 32 32 32 31 31 31 31 31 31 32 32
32 32 32 32 32 33 33 34 34 34 34 35 36 36 37 37 37 37 37 36 36 35 35 34 35 34 34 33 31 31 31 31 31 32 32 31 30 31 31 32 32 32 32